Tracking 25370 objects as of 25-Jan-2022
HD Live streaming from Space Station
objects crossing your sky now

STARLINK-2116

Track STARLINK-2116 now!
10-day predictions
STARLINK-2116 is classified as:


NORAD ID: 47724
Int'l Code: 2021-017C
Perigee: 553.4 km
Apogee: 555.2 km
Inclination: 53.1 °
Period: 95.6 minutes
Semi major axis: 6925 km
RCS: Unknown
Launch date: March 4, 2021
Source: United States (US)
Launch site: AIR FORCE EASTERN TEST RANGE (AFETR)
aabbcc
Your satellite tracking list
Your tracking list is empty




NASA's NSSDC Master Catalog

Two Line Element Set (TLE):
1 47724U 21017C   22024.43322029  .00000989  00000-0  85260-4 0  9991
2 47724  53.0566  48.9705 0001288  84.3587 275.7549 15.06408611 51959
Source of the keplerian elements: AFSPC